Hornbeck, LA

3:19 AM CDT on September 30, 2016 (GMT -0500)
Fort Polk

Weather History for KAQV - June, 2013

Change the Weather History Date:

Wednesday, June 12, 2013

  Actual Average (KPOE) Record (KPOE)
Temperature  
Mean Temperature 82 °F -  
Max Temperature 91 °F 86 °F 96 °F (2011)
Min Temperature 73 °F 68 °F 66 °F (2000)
Cooling Degree Days 17    
Growing Degree Days 32 (Base 50)    
Moisture  
Dew Point 73 °F    
Average Humidity 80    
Maximum Humidity 100    
Minimum Humidity 45    
Precipitation  
Precipitation 0.00 in - - ()
Sea Level Pressure  
Sea Level Pressure 30.04 in    
Wind  
Wind Speed 2 mph (SW)    
Max Wind Speed 7 mph    
Max Gust Speed -    
Visibility 8 miles    
Events Fog    
Averages and records for this station are not official NWS values.
T = Trace of Precipitation, MM = Missing Value Source: NWS Daily Summary

Daily Weather History Graph

Daily Weather History Graph

Search for Another Location

Airport or City:

Trip Planner

Search our weather history database for the weather conditions in past years. The results will help you decide how hot, cold, wet, or windy it might be!

Date:

Astronomy

Jun. 12, 2013 Rise Set
Actual Time 6:08 AM CDT 8:18 PM CDT
Civil Twilight 5:40 AM CDT 8:46 PM CDT
Nautical Twilight 5:06 AM CDT 9:20 PM CDT
Astronomical Twilight 4:29 AM CDT 9:57 PM CDT
Moon 9:37 AM CDT (6/12) 11:07 PM CDT (6/12)
Length of Visible Light 15h 06m
Length of Day
14h 10m
Waxing Crescent, 14% of the Moon is Illuminated
Jun 12
Waxing Crescent
Jun 16
First Quarter
Jun 23
Full
Jun 29
Last Quarter
Jul 8
New

Hourly Weather History & Observations

Time (CDT) Temp. Heat Index Dew Point Humidity Pressure Visibility Wind Dir Wind Speed Gust Speed Precip Events Conditions
12:56 AM 77.0 °F - 75.0 °F 94% 30.03 in 9.0 mi Calm Calm - N/A   Clear
1:56 AM 75.9 °F - 73.9 °F 94% 30.02 in 8.0 mi Calm Calm - N/A   Clear
2:56 AM 75.0 °F - 73.9 °F 96% 30.02 in 6.0 mi Calm Calm - N/A   Clear
3:56 AM 73.9 °F - 73.0 °F 97% 30.03 in 4.0 mi Calm Calm - N/A   Clear
4:40 AM 73.4 °F - 73.4 °F 100% 30.05 in 5.0 mi Calm Calm - N/A   Mostly Cloudy
4:56 AM 73.0 °F - 72.0 °F 96% 30.04 in 4.0 mi Calm Calm - N/A   Overcast
5:12 AM 73.4 °F - 71.6 °F 94% 30.05 in 4.0 mi Calm Calm - N/A   Overcast
5:41 AM 73.4 °F - 73.4 °F 100% 30.05 in 1.8 mi Calm Calm - N/A   Overcast
5:56 AM 73.9 °F - 73.9 °F 100% 30.05 in 1.0 mi Calm Calm - N/A   Overcast
6:13 AM 73.4 °F - 73.4 °F 100% 30.06 in 0.5 mi Calm Calm - N/A Fog Fog
6:56 AM 73.9 °F - 73.9 °F 100% 30.06 in 1.0 mi Calm Calm - N/A   Overcast
7:44 AM 75.2 °F - 75.2 °F 100% 30.06 in 3.0 mi Variable 3.5 mph - N/A   Overcast
7:56 AM 75.9 °F - 75.0 °F 97% 30.05 in 4.0 mi Calm Calm - N/A   Overcast
8:26 AM 78.8 °F - 75.2 °F 89% 30.07 in 10.0 mi Calm Calm - N/A   Scattered Clouds
8:56 AM 81.0 °F 86.7 °F 75.0 °F 82% 30.07 in 10.0 mi Variable 5.8 mph - N/A   Scattered Clouds
9:07 AM 82.4 °F 89.5 °F 75.2 °F 79% 30.08 in 10.0 mi Variable 5.8 mph - N/A   Mostly Cloudy
9:35 AM 84.2 °F 90.9 °F 73.4 °F 70% 30.08 in 10.0 mi Variable 4.6 mph - N/A   Mostly Cloudy
9:56 AM 82.9 °F 89.4 °F 73.9 °F 74% 30.08 in 10.0 mi Variable 4.6 mph - N/A   Mostly Cloudy
10:20 AM 84.2 °F 90.9 °F 73.4 °F 70% 30.09 in 10.0 mi Variable 5.8 mph - N/A   Scattered Clouds
10:46 AM 84.2 °F 90.9 °F 73.4 °F 70% 30.09 in 10.0 mi SW 5.8 mph - N/A   Mostly Cloudy
10:56 AM 86.0 °F 92.2 °F 72.0 °F 63% 30.08 in 10.0 mi Variable 4.6 mph - N/A   Mostly Cloudy
11:18 AM 87.8 °F 93.8 °F 71.6 °F 58% 30.09 in 10.0 mi WSW 6.9 mph - N/A   Mostly Cloudy
11:56 AM 86.0 °F 92.2 °F 72.0 °F 63% 30.08 in 10.0 mi Variable 5.8 mph - N/A   Mostly Cloudy
12:56 PM 90.0 °F 94.5 °F 69.1 °F 50% 30.07 in 10.0 mi Variable 4.6 mph - N/A   Scattered Clouds
1:56 PM 90.0 °F 96.4 °F 71.1 °F 54% 30.06 in 10.0 mi SW 4.6 mph - N/A   Scattered Clouds
2:56 PM 91.9 °F 97.4 °F 70.0 °F 48% 30.04 in 10.0 mi Variable 6.9 mph - N/A   Scattered Clouds
3:56 PM 91.9 °F 95.9 °F 68.0 °F 45% 30.02 in 10.0 mi Variable 5.8 mph - N/A   Partly Cloudy
4:56 PM 91.9 °F 97.4 °F 70.0 °F 48% 29.99 in 10.0 mi SSW 4.6 mph - N/A   Clear
5:56 PM 90.0 °F 96.4 °F 71.1 °F 54% 29.98 in 10.0 mi Calm Calm - N/A   Clear
6:56 PM 90.0 °F 99.0 °F 73.9 °F 59% 29.98 in 10.0 mi Calm Calm - N/A   Clear
7:56 PM 82.9 °F 91.8 °F 77.0 °F 82% 29.98 in 10.0 mi Calm Calm - N/A   Clear
8:56 PM 80.1 °F 85.8 °F 77.0 °F 90% 29.98 in 10.0 mi Calm Calm - N/A   Clear
9:56 PM 79.0 °F - 75.9 °F 90% 30.00 in 9.0 mi Calm Calm - N/A   Clear
10:56 PM 78.1 °F - 75.0 °F 90% 30.01 in 10.0 mi South 3.5 mph - N/A   Clear
11:56 PM 79.0 °F - 75.0 °F 88% 30.01 in 10.0 mi Calm Calm - N/A   Clear